When you browse on this site, cookies collect data to enhance your experience and personalize the content and advertising you see.
Visit our Privacy Policy to learn more. By continuing to use the site, you agree to this use of cookies and data.
  • In Czech Republic
  • List of Countries
  • For 7 days
  • Water Temperature
  • Weather Map
  • Weather Widgets
  • user-avatar
    Login

    Hourly Weather Newcastle

    Today, 5 April, Sunday

    Time Temperature Precipitation Wind Pressure Humidity
    00:00 +14°C° 0 mm 5 mps 758 mmHg 72%
    01:00 +13°C° 0 mm 4 mps 758 mmHg 74%
    02:00 +13°C° 0 mm 5 mps 759 mmHg 74%
    03:00 +13°C° 0 mm 5 mps 759 mmHg 73%
    04:00 +12°C° 0 mm 5 mps 759 mmHg 75%
    05:00 +12°C° 0 mm 5 mps 759 mmHg 74%
    06:00 +13°C° 0 mm 5 mps 760 mmHg 73%
    07:00 +13°C° 0 mm 5 mps 760 mmHg 72%
    08:00 +14°C° 0 mm 5 mps 760 mmHg 65%
    09:00 +16°C° 0 mm 5 mps 760 mmHg 58%
    10:00 +20°C° 0 mm 4 mps 760 mmHg 51%
    11:00 +21°C° 0 mm 4 mps 760 mmHg 49%
    12:00 +22°C° 0 mm 4 mps 759 mmHg 47%
    13:00 +23°C° 0 mm 4 mps 759 mmHg 44%
    14:00 +23°C° 0 mm 4 mps 758 mmHg 45%
    15:00 +23°C° 0 mm 4 mps 758 mmHg 46%
    16:00 +23°C° 0 mm 4 mps 758 mmHg 46%
    17:00 +21°C° 0 mm 4 mps 759 mmHg 51%
    18:00 +20°C° 0 mm 5 mps 760 mmHg 55%
    19:00 +17°C° 0 mm 5 mps 761 mmHg 59%
    20:00 +16°C° 0 mm 5 mps 761 mmHg 62%
    21:00 +15°C° 0 mm 4 mps 762 mmHg 65%
    22:00 +14°C° 0 mm 4 mps 762 mmHg 68%
    23:00 +14°C° 0 mm 4 mps 762 mmHg 69%

    Tomorrow, 6 April, Monday

    Time Temperature Precipitation Wind Pressure Humidity
    00:00 +13°C° 0 mm 4 mps 762 mmHg 71%
    01:00 +13°C° 0 mm 4 mps 762 mmHg 73%
    02:00 +12°C° 0 mm 4 mps 762 mmHg 75%
    03:00 +12°C° 0 mm 4 mps 762 mmHg 77%
    04:00 +12°C° 0 mm 4 mps 762 mmHg 78%
    05:00 +12°C° 0 mm 4 mps 762 mmHg 78%
    06:00 +12°C° 0 mm 4 mps 763 mmHg 77%
    07:00 +12°C° 0 mm 4 mps 763 mmHg 76%
    08:00 +16°C° 0 mm 3 mps 763 mmHg 68%
    09:00 +18°C° 0 mm 3 mps 763 mmHg 61%
    10:00 +21°C° 0 mm 3 mps 763 mmHg 54%
    11:00 +22°C° 0 mm 3 mps 763 mmHg 51%
    12:00 +24°C° 0 mm 3 mps 762 mmHg 48%
    13:00 +25°C° 0 mm 3 mps 762 mmHg 44%
    14:00 +24°C° 0 mm 3 mps 762 mmHg 49%
    15:00 +22°C° 0 mm 4 mps 762 mmHg 54%
    16:00 +21°C° 0 mm 4 mps 761 mmHg 59%
    17:00 +20°C° 0 mm 3 mps 762 mmHg 64%
    18:00 +19°C° 0 mm 3 mps 763 mmHg 70%
    19:00 +18°C° 0 mm 3 mps 763 mmHg 75%
    20:00 +18°C° 0.2 mm 3 mps 764 mmHg 78%
    21:00 +17°C° 0.2 mm 2 mps 764 mmHg 81%
    22:00 +17°C° 0.2 mm 2 mps 765 mmHg 84%
    23:00 +17°C° 0.7 mm 3 mps 764 mmHg 87%

    Day after tomorrow, 7 April, Tuesday

    Time Temperature Precipitation Wind Pressure Humidity
    00:00 +16°C° 0.7 mm 3 mps 764 mmHg 90%
    01:00 +16°C° 0.7 mm 3 mps 764 mmHg 93%
    02:00 +16°C° 0.7 mm 3 mps 764 mmHg 93%
    03:00 +16°C° 0.7 mm 3 mps 764 mmHg 93%
    04:00 +17°C° 0.7 mm 3 mps 764 mmHg 93%
    05:00 +17°C° 0.3 mm 3 mps 764 mmHg 93%
    06:00 +17°C° 0.3 mm 3 mps 765 mmHg 92%
    07:00 +17°C° 0.3 mm 3 mps 765 mmHg 91%
    08:00 +17°C° 0.3 mm 3 mps 765 mmHg 90%
    09:00 +18°C° 0.3 mm 3 mps 765 mmHg 88%
    10:00 +18°C° 0.3 mm 3 mps 765 mmHg 87%
    11:00 +19°C° 0.2 mm 3 mps 765 mmHg 86%
    12:00 +19°C° 0.2 mm 3 mps 765 mmHg 84%
    13:00 +19°C° 0.2 mm 3 mps 764 mmHg 83%
    14:00 +19°C° 0 mm 3 mps 764 mmHg 81%
    15:00 +19°C° 0 mm 3 mps 764 mmHg 78%
    16:00 +19°C° 0 mm 3 mps 763 mmHg 76%
    17:00 +18°C° 0 mm 3 mps 764 mmHg 76%
    18:00 +18°C° 0 mm 3 mps 764 mmHg 76%
    19:00 +17°C° 0 mm 2 mps 765 mmHg 76%
    20:00 +17°C° 0 mm 2 mps 765 mmHg 76%
    21:00 +17°C° 0 mm 2 mps 765 mmHg 77%
    22:00 +17°C° 0 mm 2 mps 765 mmHg 78%
    23:00 +17°C° 0 mm 2 mps 765 mmHg 78%

    8 April, Wednesday

    Time Temperature Precipitation Wind Pressure Humidity
    00:00 +18°C° 0 mm 1 mps 765 mmHg 79%
    01:00 +18°C° 0 mm 1 mps 764 mmHg 80%
    02:00 +18°C° 0 mm 1 mps 764 mmHg 80%
    03:00 +18°C° 0 mm 1 mps 764 mmHg 81%
    04:00 +18°C° 0 mm 1 mps 764 mmHg 81%
    05:00 +18°C° 0 mm 1 mps 764 mmHg 80%
    06:00 +18°C° 0 mm 1 mps 765 mmHg 80%
    07:00 +17°C° 0 mm 2 mps 765 mmHg 80%
    08:00 +18°C° 0.1 mm 2 mps 765 mmHg 76%
    09:00 +19°C° 0.1 mm 2 mps 765 mmHg 72%
    10:00 +20°C° 0.1 mm 2 mps 766 mmHg 68%
    11:00 +21°C° 0.2 mm 3 mps 765 mmHg 68%
    12:00 +21°C° 0.2 mm 3 mps 765 mmHg 67%
    13:00 +21°C° 0.2 mm 4 mps 765 mmHg 67%
    14:00 +21°C° 0 mm 4 mps 765 mmHg 67%
    15:00 +21°C° 0 mm 4 mps 765 mmHg 66%
    16:00 +21°C° 0 mm 4 mps 765 mmHg 66%
    17:00 +19°C° 0 mm 4 mps 766 mmHg 70%
    18:00 +18°C° 0 mm 3 mps 766 mmHg 75%
    19:00 +17°C° 0 mm 3 mps 767 mmHg 80%
    20:00 +17°C° 0.2 mm 3 mps 767 mmHg 82%
    21:00 +17°C° 0.2 mm 2 mps 768 mmHg 85%
    22:00 +16°C° 0.2 mm 2 mps 768 mmHg 87%
    23:00 +16°C° 0.3 mm 2 mps 768 mmHg 90%

    9 April, Thursday

    Time Temperature Precipitation Wind Pressure Humidity
    00:00 +16°C° 0.3 mm 2 mps 768 mmHg 92%
    01:00 +15°C° 0.3 mm 1 mps 768 mmHg 95%
    02:00 +15°C° 0.1 mm 1 mps 768 mmHg 96%
    03:00 +15°C° 0.1 mm 1 mps 768 mmHg 96%
    04:00 +14°C° 0.1 mm 1 mps 768 mmHg 96%
    05:00 +15°C° 0 mm 1 mps 768 mmHg 95%
    06:00 +15°C° 0 mm 1 mps 769 mmHg 95%
    07:00 +15°C° 0 mm 1 mps 769 mmHg 94%
    08:00 +18°C° 0.3 mm 1 mps 770 mmHg 85%
    09:00 +21°C° 0.3 mm 1 mps 770 mmHg 77%
    10:00 +23°C° 0.3 mm 2 mps 770 mmHg 69%
    11:00 +21°C° 0.9 mm 2 mps 770 mmHg 74%
    12:00 +21°C° 0.9 mm 3 mps 770 mmHg 79%
    13:00 +20°C° 0.9 mm 4 mps 769 mmHg 84%
    14:00 +21°C° 0.2 mm 4 mps 769 mmHg 82%
    15:00 +21°C° 0.2 mm 4 mps 769 mmHg 80%
    16:00 +21°C° 0.2 mm 4 mps 769 mmHg 78%
    17:00 +20°C° 0 mm 3 mps 770 mmHg 80%
    18:00 +18°C° 0 mm 3 mps 770 mmHg 83%
    19:00 +17°C° 0 mm 3 mps 771 mmHg 85%
    20:00 +17°C° 0 mm 3 mps 771 mmHg 84%
    21:00 +17°C° 0 mm 2 mps 771 mmHg 83%
    22:00 +18°C° 0 mm 2 mps 771 mmHg 82%
    23:00 +17°C° 0 mm 2 mps 771 mmHg 83%

    10 April, Friday

    Time Temperature Precipitation Wind Pressure Humidity
    00:00 +17°C° 0 mm 2 mps 771 mmHg 84%
    01:00 +16°C° 0 mm 1 mps 770 mmHg 85%
    02:00 +16°C° 0 mm 1 mps 770 mmHg 87%
    03:00 +15°C° 0 mm 1 mps 770 mmHg 89%
    04:00 +15°C° 0 mm 1 mps 770 mmHg 91%
    05:00 +15°C° 0 mm 1 mps 770 mmHg 90%
    06:00 +15°C° 0 mm 1 mps 770 mmHg 89%
    07:00 +16°C° 0 mm 1 mps 770 mmHg 88%
    08:00 +19°C° 0 mm 1 mps 770 mmHg 80%
    09:00 +21°C° 0 mm 1 mps 770 mmHg 72%
    10:00 +24°C° 0 mm 1 mps 770 mmHg 63%
    11:00 +25°C° 0 mm 1 mps 769 mmHg 60%
    12:00 +25°C° 0 mm 2 mps 768 mmHg 56%
    13:00 +26°C° 0 mm 2 mps 768 mmHg 53%
    14:00 +26°C° 0 mm 2 mps 767 mmHg 55%
    15:00 +26°C° 0 mm 3 mps 766 mmHg 57%
    16:00 +25°C° 0 mm 3 mps 765 mmHg 59%
    17:00 +22°C° 0 mm 3 mps 765 mmHg 66%
    18:00 +20°C° 0 mm 3 mps 765 mmHg 72%
    19:00 +19°C° 0 mm 3 mps 765 mmHg 79%
    20:00 +18°C° 0 mm 3 mps 765 mmHg 80%
    21:00 +18°C° 0 mm 3 mps 765 mmHg 81%
    22:00 +18°C° 0 mm 3 mps 765 mmHg 83%
    23:00 +18°C° 0 mm 3 mps 765 mmHg 83%
    Show more